W9PPN Weather Reports


time (UTC)temp
C
wind
direction
speed
KPH
gust
KPH
rain 1hr
cm
rain 24hr
cm
rain mn
cm
humidity
%
barometer
mb
20260510130307 4 342 9.7 16.1 0.00 0.00 0.00 71 1012.8
20260510125802 4 323 8.0 14.5 0.00 0.00 0.00 72 1012.7
20260510125254 3 285 8.0 16.1 0.00 0.00 0.00 73 1012.7
20260510124749 3 301 9.7 16.1 0.00 0.00 0.00 74 1012.7
20260510124242 3 295 9.7 16.1 0.00 0.00 0.00 74 1012.4
20260510124009 3 324 8.0 16.1 0.00 0.00 0.00 75 1012.4
20260510123232 3 312 8.0 14.5 0.00 0.00 0.00 76 1012.4
20260510122952 3 308 8.0 14.5 0.00 0.00 0.00 76 1012.1
20260510122703 3 309 8.0 14.5 0.00 0.00 0.00 76 1012.1
20260510121713 3 310 6.4 11.3 0.00 0.00 0.00 75 1012.1
20260510121210 3 310 6.4 11.3 0.00 0.00 0.00 75 1012.0
20260510120659 2 310 4.8 11.3 0.00 0.00 0.00 75 1012.0
20260510120154 2 311 4.8 11.3 0.00 0.00 0.00 75 1012.0
20260510115648 2 310 4.8 9.7 0.00 0.00 0.00 75 1011.7
20260510115142 2 310 6.4 11.3 0.00 0.00 0.00 75 1011.7
20260510114637 2 310 6.4 11.3 0.00 0.00 0.00 74 1011.7
20260510114130 2 308 6.4 11.3 0.00 0.00 0.00 74 1011.7
20260510113625 2 308 6.4 11.3 0.00 0.00 0.00 74 1011.7
20260510113116 2 307 4.8 9.7 0.00 0.00 0.00 73 1011.7
20260510112609 2 307 4.8 16.1 0.00 0.00 0.00 73 1011.5
20260510112100 2 307 3.2 16.1 0.00 0.00 0.00 73 1011.5
20260510111554 2 307 6.4 16.1 0.00 0.00 0.00 72 1011.5
20260510111046 2 307 8.0 16.1 0.00 0.00 0.00 72 1011.4
20260510110536 3 326 8.0 14.5 0.00 0.00 0.00 72 1011.4
20260510110029 3 326 8.0 14.5 0.00 0.00 0.00 71 1011.4
20260510105517 3 310 8.0 12.9 0.00 0.00 0.00 71 1011.1
20260510105227 3 320 8.0 14.5 0.00 0.00 0.00 71 1011.1
20260510104451 3 326 8.0 14.5 0.00 0.00 0.00 71 1010.7
20260510103942 3 336 6.4 14.5 0.00 0.00 0.00 71 1010.7
20260510103427 3 337 6.4 14.5 0.00 0.00 0.00 71 1010.7
20260510102917 2 329 6.4 12.9 0.00 0.00 0.00 71 1010.6
20260510102405 2 321 6.4 12.9 0.00 0.00 0.00 71 1010.6
20260510101851 2 320 4.8 9.7 0.00 0.00 0.00 70 1010.6
20260510101557 2 320 4.8 8.0 0.00 0.00 0.00 71 1010.4
20260510100829 2 320 4.8 8.0 0.00 0.00 0.00 71 1010.4
20260510100537 2 320 4.8 8.0 0.00 0.00 0.00 71 1010.4
20260510095804 2 320 3.2 8.0 0.00 0.00 0.00 74 1010.1
20260510095251 2 320 3.2 8.0 0.00 0.00 0.00 71 1010.1
20260510094739 2 320 3.2 8.0 0.00 0.00 0.00 71 1010.1
20260510094446 2 320 4.8 8.0 0.00 0.00 0.00 71 1010.0
20260510093716 2 320 4.8 6.4 0.00 0.00 0.00 71 1010.0
20260510093204 2 320 4.8 8.0 0.00 0.00 0.00 70 1010.0
20260510092652 2 320 3.2 8.0 0.00 0.00 0.00 70 1009.7
20260510092141 2 320 3.2 8.0 0.00 0.00 0.00 70 1009.7
20260510091635 2 320 4.8 8.0 0.00 0.00 0.00 70 1009.7
20260510091128 3 320 4.8 8.0 0.00 0.00 0.00 69 1009.5
20260510090622 3 320 3.2 8.0 0.00 0.00 0.00 69 1009.5
20260510090116 3 320 4.8 8.0 0.00 0.00 0.00 69 1009.5
20260510085834 2 320 4.8 8.0 0.00 0.00 0.00 69 1009.5
20260510085103 2 320 4.8 8.0 0.00 0.00 0.00 69 1009.5
20260510084559 3 320 4.8 8.0 0.00 0.00 0.00 69 1009.5
20260510084052 3 320 3.2 8.0 0.00 0.00 0.00 68 1009.5
20260510083547 3 320 3.2 8.0 0.00 0.00 0.00 68 1009.5
20260510083039 3 320 4.8 8.0 0.00 0.00 0.00 68 1009.5
20260510082534 3 320 4.8 8.0 0.00 0.00 0.00 68 1009.2
20260510082027 3 320 4.8 8.0 0.00 0.00 0.00 68 1009.2
20260510081521 3 320 4.8 8.0 0.00 0.00 0.00 67 1009.2
20260510081015 3 320 4.8 6.4 0.00 0.00 0.00 67 1009.1
20260510080507 3 320 4.8 8.0 0.00 0.00 0.00 67 1009.1
20260510075959 3 320 4.8 8.0 0.00 0.00 0.00 67 1009.1
20260510075451 3 320 4.8 8.0 0.00 0.00 0.00 66 1009.1
20260510074945 3 320 4.8 8.0 0.00 0.00 0.00 66 1009.1
20260510074441 3 320 3.2 6.4 0.00 0.00 0.00 67 1009.0
20260510074158 3 320 3.2 6.4 0.00 0.00 0.00 67 1009.0
20260510073428 3 320 3.2 6.4 0.00 0.00 0.00 66 1009.0
20260510072922 3 320 3.2 6.4 0.00 0.00 0.00 66 1009.0
20260510072417 3 320 3.2 6.4 0.00 0.00 0.00 66 1009.0
20260510071910 3 320 4.8 6.4 0.00 0.00 0.00 66 1009.0
20260510071403 3 320 3.2 6.4 0.00 0.00 0.00 66 1009.0
20260510070857 3 320 1.6 6.4 0.00 0.00 0.00 67 1009.0
20260510070346 3 320 1.6 6.4 0.00 0.00 0.00 67 1009.0
20260510065840 3 320 1.6 4.8 0.00 0.00 0.00 67 1008.9
20260510065556 3 320 1.6 4.8 0.00 0.00 0.00 67 1008.9
20260510065046 3 320 1.6 4.8 0.00 0.00 0.00 66 1008.9
20260510064324 3 320 1.6 4.8 0.00 0.00 0.00 65 1009.0
20260510063821 3 320 0.0 3.2 0.00 0.00 0.00 64 1009.0
20260510063317 3 320 1.6 6.4 0.00 0.00 0.00 64 1009.0
20260510062811 3 320 1.6 6.4 0.00 0.00 0.00 64 1008.9
20260510062306 3 320 3.2 6.4 0.00 0.00 0.00 63 1008.9
20260510062243 3 320 3.2 6.4 0.00 0.00 0.00 63 1008.9
20260510061252 3 320 3.2 8.0 0.00 0.00 0.00 63 1008.9
20260510060744 3 320 3.2 8.0 0.00 0.00 0.00 62 1008.9
20260510060241 3 320 4.8 8.0 0.00 0.00 0.00 62 1008.9
20260510055734 3 320 4.8 8.0 0.00 0.00 0.00 62 1008.8
20260510055227 3 320 3.2 6.4 0.00 0.00 0.00 62 1008.8
20260510054720 3 320 3.2 6.4 0.00 0.00 0.00 61 1008.8
20260510054217 3 320 3.2 8.0 0.00 0.00 0.00 61 1008.6
20260510053710 3 320 3.2 8.0 0.00 0.00 0.00 61 1008.6
20260510053432 3 320 4.8 8.0 0.00 0.00 0.00 61 1008.6
20260510052658 3 320 4.8 8.0 0.00 0.00 0.00 61 1008.6
20260510052150 3 320 4.8 8.0 0.00 0.00 0.00 62 1008.6
20260510051644 3 320 3.2 8.0 0.00 0.00 0.00 62 1008.6
20260510051627 3 320 1.6 8.0 0.00 0.00 0.00 63 1008.5
20260510050854 3 320 3.2 8.0 0.00 0.00 0.00 63 1008.5
20260510050122 2 320 3.2 8.0 0.00 0.00 0.00 63 1008.5
20260510045623 2 315 0.0 6.4 0.00 0.00 0.00 63 1008.4
20260510045115 3 315 0.0 6.4 0.00 0.00 0.00 63 1008.4
20260510044604 3 315 1.6 6.4 0.00 0.00 0.00 62 1008.4
20260510044058 3 315 3.2 6.4 0.00 0.00 0.00 61 1008.3
20260510043552 3 315 1.6 4.8 0.00 0.00 0.00 60 1008.3
20260510043047 3 315 1.6 6.4 0.00 0.00 0.00 59 1008.3
20260510042541 3 315 1.6 6.4 0.00 0.00 0.00 60 1008.3
20260510042259 3 315 1.6 6.4 0.00 0.00 0.00 59 1008.3
20260510041530 3 315 1.6 6.4 0.00 0.00 0.00 59 1008.3
20260510041024 3 315 3.2 6.4 0.00 0.00 0.00 58 1008.2
20260510040517 3 315 3.2 6.4 0.00 0.00 0.00 58 1008.2
20260510040010 3 315 3.2 9.7 0.00 0.00 0.00 57 1008.2
20260510035728 3 315 4.8 9.7 0.00 0.00 0.00 57 1008.0
20260510034958 3 315 4.8 9.7 0.00 0.00 0.00 57 1008.0
20260510034453 3 315 3.2 9.7 0.00 0.00 0.00 58 1008.0
20260510033946 3 315 3.2 6.4 0.00 0.00 0.00 58 1008.0
20260510033442 3 315 3.2 4.8 0.00 0.00 0.00 58 1008.0
20260510032939 3 315 3.2 8.0 0.00 0.00 0.00 59 1008.0
20260510032435 3 315 3.2 8.0 0.00 0.00 0.00 58 1008.0
20260510031927 4 315 4.8 8.0 0.00 0.00 0.00 56 1008.0
20260510031422 4 315 4.8 8.0 0.00 0.00 0.00 55 1007.9
20260510031139 4 315 4.8 8.0 0.00 0.00 0.00 54 1007.9
20260510030411 4 315 4.8 6.4 0.00 0.00 0.00 53 1007.9
20260510025859 5 315 4.8 9.7 0.00 0.00 0.00 53 1007.7
20260510025354 5 315 4.8 9.7 0.00 0.00 0.00 52 1007.7
20260510025110 5 315 4.8 9.7 0.00 0.00 0.00 51 1007.7
20260510024606 5 315 4.8 9.7 0.00 0.00 0.00 51 1007.5
20260510023835 5 316 6.4 9.7 0.00 0.00 0.00 51 1007.5
20260510023330 5 316 6.4 9.7 0.00 0.00 0.00 51 1007.5
20260510022824 5 316 4.8 11.3 0.00 0.00 0.00 51 1007.5
20260510022538 5 316 1.6 11.3 0.00 0.00 0.00 51 1007.5
20260510021816 5 317 0.0 0.0 0.00 0.00 0.00 51 1007.5
20260510021314 5 317 0.0 0.0 0.00 0.00 0.00 51 1007.2
20260510020813 5 317 0.0 0.0 0.00 0.00 0.00 50 1007.2
20260510020311 5 317 0.0 0.0 0.00 0.00 0.00 49 1007.2
20260510015810 5 317 0.0 8.0 0.00 0.00 0.00 49 1006.9
20260510015307 6 317 1.6 8.0 0.00 0.00 0.00 47 1006.9
20260510014805 6 317 3.2 8.0 0.00 0.00 0.00 47 1006.9
20260510014305 6 317 4.8 11.3 0.00 0.00 0.00 46 1006.5
20260510013805 6 317 6.4 11.3 0.00 0.00 0.00 45 1006.5
20260510013302 6 317 6.4 19.3 0.00 0.00 0.00 45 1006.5
20260510013019 6 317 8.0 19.3 0.00 0.00 0.00 45 1006.5
20260510012258 6 320 9.7 19.3 0.00 0.00 0.00 44 1006.5
20260510011800 7 306 9.7 19.3 0.00 0.00 0.00 44 1006.5
20260510011744 7 310 8.0 16.1 0.00 0.00 0.00 44 1006.3
20260510010758 7 312 9.7 16.1 0.00 0.00 0.00 44 1006.3
20260510010300 7 312 9.7 16.1 0.00 0.00 0.00 44 1006.3
20260510005759 7 306 9.7 16.1 0.00 0.00 0.00 44 1006.1
20260510005300 7 317 8.0 16.1 0.00 0.00 0.00 43 1006.1
20260510005026 7 314 9.7 16.1 0.00 0.00 0.00 42 1006.1
20260510004257 7 308 9.7 16.1 0.00 0.00 0.00 42 1006.0
20260510003748 7 318 8.0 19.3 0.00 0.00 0.00 42 1006.0
20260510003448 8 304 11.3 19.3 0.00 0.00 0.00 40 1005.8
20260510003334 8 308 9.7 19.3 0.00 0.00 0.00 41 1006.0
20260510002247 8 312 8.0 19.3 0.00 0.00 0.00 40 1005.8
20260510001746 8 320 8.0 17.7 0.00 0.00 0.00 41 1005.8
20260510001249 8 318 8.0 20.9 0.00 0.00 0.00 40 1005.6
20260510000747 8 326 9.7 20.9 0.00 0.00 0.00 39 1005.6
20260510000248 8 340 8.0 20.9 0.00 0.00 0.00 40 1005.6
20260509235746 8 326 8.0 20.9 0.00 0.00 0.00 40 1005.4
20260509235246 8 338 9.7 19.3 0.00 0.00 0.00 39 1005.4
20260509234747 8 319 9.7 22.5 0.00 0.00 0.00 40 1005.4
20260509234246 8 314 9.7 22.5 0.00 0.00 0.00 41 1005.3
20260509233746 8 316 11.3 22.5 0.00 0.00 0.00 41 1005.3
20260509233244 8 334 11.3 22.5 0.00 0.00 0.00 39 1005.3
20260509232744 8 339 8.0 16.1 0.00 0.00 0.00 38 1005.2
20260509232244 8 1 6.4 16.1 0.00 0.00 0.00 41 1005.2
20260509231744 8 30 8.0 16.1 0.00 0.00 0.00 39 1005.2
20260509231245 8 306 8.0 16.1 0.00 0.00 0.00 39 1004.9
20260509230738 8 314 8.0 16.1 0.00 0.00 0.00 39 1004.9
20260509230232 8 4 8.0 16.1 0.00 0.00 0.00 38 1004.9
20260509225947 8 19 8.0 16.1 0.00 0.00 0.00 38 1004.8
20260509225221 8 324 6.4 14.5 0.00 0.00 0.00 39 1004.8
20260509224714 8 339 8.0 17.7 0.00 0.00 0.00 38 1004.8
20260509224209 8 323 8.0 17.7 0.00 0.00 0.00 37 1004.8
20260509223703 8 316 8.0 17.7 0.00 0.00 0.00 39 1004.8
20260509223419 8 304 6.4 17.7 0.00 0.00 0.00 40 1004.8
20260509222651 8 315 4.8 14.5 0.00 0.00 0.00 38 1004.7
20260509222403 8 320 4.8 12.9 0.00 0.00 0.00 39 1004.7
20260509222248 8 316 4.8 11.3 0.00 0.00 0.00 39 1004.7
20260509221133 8 321 3.2 12.9 0.00 0.00 0.00 40 1004.7
20260509220626 8 320 3.2 12.9 0.00 0.00 0.00 41 1004.7
20260509220122 8 318 1.6 12.9 0.00 0.00 0.00 40 1004.7
20260509215615 8 336 1.6 11.3 0.00 0.00 0.00 41 1004.6
20260509215110 8 336 3.2 11.3 0.00 0.00 0.00 40 1004.6
20260509214604 8 336 6.4 12.9 0.00 0.00 0.00 39 1004.6
20260509214057 8 339 6.4 14.5 0.00 0.00 0.00 41 1004.6
20260509213551 8 314 4.8 14.5 0.00 0.00 0.00 39 1004.6
20260509213046 8 313 6.4 16.1 0.00 0.00 0.00 41 1004.6
20260509212540 7 318 8.0 16.1 0.00 0.00 0.00 41 1004.4
20260509212034 7 8 8.0 16.1 0.00 0.00 0.00 42 1004.4
20260509211528 8 347 9.7 16.1 0.00 0.00 0.00 40 1004.4
20260509211022 8 308 8.0 16.1 0.00 0.00 0.00 40 1004.2
20260509210956 8 339 8.0 25.7 0.00 0.00 0.00 41 1004.2
20260509210010 8 320 9.7 25.7 0.00 0.00 0.00 42 1004.2
20260509205504 7 328 11.3 25.7 0.00 0.00 0.00 42 1004.2
20260509204958 7 309 11.3 25.7 0.00 0.00 0.00 38 1004.2
20260509204452 7 310 9.7 22.5 0.00 0.00 0.00 41 1004.1
20260509203946 8 326 11.3 22.5 0.00 0.00 0.00 41 1004.1
20260509203440 8 312 11.3 22.5 0.00 0.00 0.00 40 1004.1
20260509203208 8 337 9.7 22.5 0.00 0.00 0.00 39 1004.0
20260509202428 8 345 11.3 22.5 0.00 0.00 0.00 40 1004.0
20260509201923 8 310 12.9 33.8 0.00 0.00 0.00 41 1004.0
20260509201416 8 312 12.9 33.8 0.00 0.00 0.00 39 1003.6
20260509200910 8 339 14.5 33.8 0.00 0.00 0.00 39 1003.6
20260509200404 8 305 14.5 33.8 0.00 0.00 0.00 37 1003.6
20260509195859 8 356 11.3 29.0 0.00 0.00 0.00 39 1003.6
20260509195353 8 7 9.7 25.7 0.00 0.00 0.00 38 1003.6
20260509194846 8 325 12.9 25.7 0.00 0.00 0.00 42 1003.6
20260509194340 8 338 14.5 25.7 0.00 0.00 0.00 39 1003.4
20260509193834 8 324 12.9 24.1 0.00 0.00 0.00 39 1003.4
20260509193328 8 321 12.9 30.6 0.00 0.00 0.00 42 1003.4
20260509192822 8 323 16.1 30.6 0.00 0.00 0.00 39 1003.1
20260509192316 8 328 16.1 30.6 0.00 0.00 0.00 39 1003.1
20260509191812 8 320 17.7 30.6 0.00 0.00 0.00 41 1003.1
20260509191305 8 337 16.1 27.4 0.00 0.00 0.00 40 1003.1
20260509190758 8 308 14.5 32.2 0.00 0.00 0.00 40 1003.1
20260509190252 8 292 16.1 32.2 0.00 0.00 0.00 41 1003.1
20260509185746 7 346 17.7 32.2 0.00 0.00 0.00 41 1003.1
20260509185240 7 315 19.3 43.5 0.00 0.00 0.00 41 1003.1
20260509184735 7 326 17.7 43.5 0.00 0.00 0.00 41 1003.1
20260509184230 7 306 19.3 43.5 0.00 0.00 0.00 40 1002.7
20260509183944 8 297 19.3 43.5 0.00 0.00 0.00 42 1002.7
20260509183220 8 337 17.7 38.6 0.00 0.00 0.00 41 1002.7
20260509182710 8 333 17.7 33.8 0.00 0.00 0.00 43 1002.6
20260509182205 8 280 17.7 33.8 0.00 0.00 0.00 44 1002.6
20260509181658 8 68 17.7 30.6 0.00 0.00 0.00 42 1002.6
20260509181153 8 297 19.3 41.8 0.00 0.00 0.00 41 1002.1
20260509180646 8 0 17.7 41.8 0.00 0.00 0.00 39 1002.1
20260509180359 8 339 19.3 40.2 0.00 0.00 0.00 41 1002.1
20260509175634 8 319 24.1 40.2 0.00 0.00 0.00 42 1002.0
20260509175128 8 329 22.5 40.2 0.00 0.00 0.00 42 1002.0
20260509174622 8 307 22.5 37.0 0.00 0.00 0.00 41 1002.0
20260509174116 8 310 20.9 37.0 0.00 0.00 0.00 41 1001.6
20260509173610 9 358 16.1 33.8 0.00 0.00 0.00 38 1001.6
20260509173104 9 289 19.3 35.4 0.00 0.00 0.00 39 1001.6
20260509172558 9 231 17.7 35.4 0.00 0.00 0.00 41 1001.4
20260509172055 8 291 17.7 35.4 0.00 0.00 0.00 41 1001.4
20260509171556 8 301 17.7 38.6 0.00 0.00 0.00 38 1001.4
20260509171057 8 285 17.7 38.6 0.00 0.00 0.00 41 1000.9
20260509170556 8 301 20.9 38.6 0.00 0.00 0.00 40 1000.9
20260509170323 8 318 20.9 38.6 0.00 0.00 0.00 40 1000.9
20260509165821 9 329 16.1 38.6 0.00 0.00 0.00 39 1000.8
20260509165056 9 298 17.7 38.6 0.00 0.00 0.00 43 1000.8
20260509164555 8 294 17.7 38.6 0.00 0.00 0.00 40 1000.8
20260509164056 8 310 17.7 38.6 0.00 0.00 0.00 39 1000.7
20260509163557 8 317 19.3 35.4 0.00 0.00 0.00 42 1000.7
20260509163055 9 310 16.1 30.6 0.00 0.00 0.00 42 1000.7
20260509162556 8 294 17.7 33.8 0.00 0.00 0.00 44 1000.4
20260509162056 8 320 19.3 33.8 0.00 0.00 0.00 45 1000.4
20260509161557 8 317 19.3 41.8 0.00 0.00 0.00 44 1000.4
20260509161321 8 314 20.9 41.8 0.00 0.00 0.00 45 1000.1
20260509160541 8 310 20.9 41.8 0.00 0.00 0.00 44 1000.1
20260509160029 8 326 19.3 41.8 0.00 0.00 0.00 43 1000.1
20260509155735 8 329 17.7 41.8 0.00 0.00 0.00 43 999.9
20260509155452 8 314 17.7 41.8 0.00 0.00 0.00 43 999.9
20260509154452 8 280 17.7 40.2 0.00 0.00 0.00 45 999.6
20260509153940 8 341 17.7 40.2 0.00 0.00 0.00 45 999.6
20260509153429 8 337 19.3 41.8 0.00 0.00 0.00 44 999.6
20260509152916 8 262 20.9 41.8 0.00 0.00 0.00 44 999.4
20260509152404 8 306 16.1 35.4 0.00 0.00 0.00 43 999.4
20260509151852 8 310 14.5 40.2 0.00 0.00 0.00 43 999.4
20260509151340 8 319 17.7 40.2 0.00 0.00 0.00 44 999.1
20260509150828 8 310 19.3 41.8 0.00 0.00 0.00 44 999.1
20260509150316 8 308 17.7 41.8 0.00 0.00 0.00 41 999.1
20260509145804 7 318 17.7 41.8 0.00 0.00 0.00 42 998.9
20260509145251 7 285 20.9 41.8 0.00 0.00 0.00 44 998.9
20260509144745 7 285 24.1 41.8 0.00 0.00 0.00 42 998.9
20260509144238 7 307 20.9 38.6 0.00 0.00 0.00 42 998.8
20260509143733 7 338 19.3 38.6 0.00 0.00 0.00 41 998.8
20260509143227 7 297 20.9 38.6 0.00 0.00 0.00 42 998.8
20260509142720 7 307 19.3 38.6 0.00 0.00 0.00 42 998.8
20260509142215 8 293 14.5 37.0 0.00 0.00 0.00 40 998.8
20260509141708 7 302 14.5 40.2 0.00 0.00 0.00 42 998.8
20260509141158 7 306 16.1 40.2 0.00 0.00 0.00 41 998.4
20260509140657 7 328 17.7 40.2 0.00 0.00 0.00 42 998.4
20260509140151 7 308 16.1 40.2 0.00 0.00 0.00 40 998.4
20260509135645 7 285 12.9 27.4 0.00 0.00 0.00 41 998.2
20260509135138 7 308 11.3 24.1 0.00 0.00 0.00 43 998.2
20260509134632 7 333 11.3 24.1 0.00 0.00 0.00 42 998.2
20260509134350 7 285 12.9 24.1 0.00 0.00 0.00 43 997.8
20260509133620 6 304 14.5 24.1 0.00 0.00 0.00 43 997.8
20260509133114 6 305 14.5 25.7 0.00 0.00 0.00 45 997.8
20260509132609 6 319 14.5 25.7 0.00 0.00 0.00 44 997.7
20260509132318 6 312 14.5 25.7 0.00 0.00 0.00 44 997.7
20260509131556 6 313 12.9 25.7 0.00 0.00 0.00 44 997.7
20260509131050 6 309 11.3 22.5 0.00 0.00 0.00 44 997.7